| time (UTC) | temp F | wind direction | speed MPH | gust MPH | rain 1hr in | rain 24hr in | rain mn in | humidity % | barometer mb |
| 20260510153029 | 56 | 127 | 0.0 | 2.0 | 0.00 | 0.00 | 0.00 | 60 | 1006.4 |
| 20260510151526 | 56 | 134 | 0.0 | 4.0 | 0.00 | 0.00 | 0.00 | 60 | 1006.5 |
| 20260510150022 | 55 | 130 | 0.0 | 2.0 | 0.00 | 0.00 | 0.00 | 61 | 1006.7 |
| 20260510144533 | 54 | 134 | 0.0 | 2.0 | 0.00 | 0.00 | 0.00 | 63 | 1006.9 |
| 20260510143033 | 53 | 134 | 0.0 | 1.0 | 0.00 | 0.00 | 0.00 | 65 | 1006.8 |
| 20260510141516 | 52 | 137 | 0.0 | 2.0 | 0.00 | 0.00 | 0.00 | 65 | 1007.0 |
| 20260510140015 | 52 | 133 | 0.0 | 2.0 | 0.00 | 0.00 | 0.00 | 65 | 1007.1 |
| 20260510134514 | 51 | 121 | 0.0 | 1.0 | 0.00 | 0.00 | 0.00 | 66 | 1007.2 |
| 20260510133013 | 50 | 127 | 0.0 | 2.0 | 0.00 | 0.00 | 0.00 | 68 | 1007.4 |
| 20260510131511 | 49 | 135 | 0.0 | 1.0 | 0.00 | 0.00 | 0.00 | 68 | 1007.5 |
| 20260510130013 | 49 | 142 | 0.0 | 2.0 | 0.00 | 0.00 | 0.00 | 69 | 1007.7 |
| 20260510124509 | 48 | 131 | 0.0 | 1.0 | 0.00 | 0.00 | 0.00 | 69 | 1007.7 |
| 20260510123017 | 48 | 130 | 0.0 | 3.0 | 0.00 | 0.00 | 0.00 | 69 | 1007.8 |
| 20260510121507 | 48 | 134 | 0.0 | 1.0 | 0.00 | 0.00 | 0.00 | 69 | 1008.0 |
| 20260510120007 | 48 | 136 | 0.0 | 1.0 | 0.00 | 0.00 | 0.00 | 69 | 1008.1 |
| 20260510114506 | 48 | 139 | 0.0 | 1.0 | 0.00 | 0.00 | 0.00 | 68 | 1008.0 |
| 20260510113011 | 49 | 197 | 0.0 | 3.0 | 0.00 | 0.00 | 0.00 | 68 | 1008.0 |
| 20260510111503 | 48 | 145 | 0.0 | 4.0 | 0.00 | 0.00 | 0.00 | 69 | 1008.0 |
| 20260510110004 | 48 | 124 | 0.0 | 3.0 | 0.00 | 0.00 | 0.00 | 69 | 1008.3 |
| 20260510104605 | 48 | 136 | 0.0 | 3.0 | 0.00 | 0.00 | 0.00 | 69 | 1008.5 |
| 20260510103058 | 48 | 132 | 0.0 | 1.0 | 0.00 | 0.00 | 0.00 | 69 | 1008.6 |
| 20260510101558 | 48 | 168 | 0.0 | 2.0 | 0.00 | 0.00 | 0.00 | 69 | 1008.8 |
| 20260510100056 | 48 | 139 | 0.0 | 1.0 | 0.00 | 0.00 | 0.00 | 68 | 1008.9 |
| 20260510094603 | 49 | 141 | 0.0 | 4.0 | 0.00 | 0.00 | 0.00 | 67 | 1008.8 |
| 20260510093112 | 49 | 137 | 0.0 | 4.0 | 0.00 | 0.00 | 0.00 | 67 | 1009.0 |
| 20260510091549 | 49 | 134 | 0.0 | 1.0 | 0.00 | 0.00 | 0.00 | 66 | 1009.1 |
| 20260510090047 | 50 | 138 | 0.0 | 2.0 | 0.00 | 0.00 | 0.00 | 65 | 1009.2 |
| 20260510084544 | 50 | 136 | 1.0 | 5.0 | 0.00 | 0.00 | 0.00 | 65 | 1009.4 |
| 20260510083043 | 50 | 127 | 0.0 | 3.0 | 0.00 | 0.00 | 0.00 | 65 | 1009.4 |
| 20260510081542 | 50 | 130 | 0.0 | 2.0 | 0.00 | 0.00 | 0.00 | 64 | 1009.6 |
| 20260510080040 | 50 | 150 | 0.0 | 2.0 | 0.00 | 0.00 | 0.00 | 63 | 1009.7 |
| 20260510074537 | 51 | 136 | 0.0 | 3.0 | 0.00 | 0.00 | 0.00 | 62 | 1009.9 |
| 20260510073043 | 51 | 134 | 0.0 | 3.0 | 0.00 | 0.00 | 0.00 | 61 | 1010.0 |
| 20260510071537 | 52 | 136 | 0.0 | 2.0 | 0.00 | 0.00 | 0.00 | 60 | 1009.9 |
| 20260510070033 | 53 | 125 | 0.0 | 6.0 | 0.00 | 0.00 | 0.00 | 58 | 1009.9 |
| 20260510064528 | 53 | 130 | 0.0 | 5.0 | 0.00 | 0.00 | 0.00 | 57 | 1009.8 |
| 20260510063027 | 54 | 77 | 0.0 | 4.0 | 0.00 | 0.00 | 0.00 | 56 | 1009.9 |
| 20260510061525 | 54 | 199 | 0.0 | 4.0 | 0.00 | 0.00 | 0.00 | 56 | 1010.0 |
| 20260510060025 | 54 | 220 | 0.0 | 4.0 | 0.00 | 0.00 | 0.00 | 56 | 1010.2 |
| 20260510054521 | 54 | 215 | 0.0 | 3.0 | 0.00 | 0.00 | 0.00 | 55 | 1010.2 |
| 20260510053043 | 55 | 132 | 0.0 | 1.0 | 0.00 | 0.00 | 0.00 | 54 | 1010.3 |
| 20260510051519 | 56 | 123 | 0.0 | 3.0 | 0.00 | 0.00 | 0.00 | 53 | 1010.4 |
| 20260510050019 | 56 | 128 | 0.0 | 2.0 | 0.00 | 0.00 | 0.00 | 52 | 1010.4 |
| 20260510044518 | 57 | 212 | 0.0 | 2.0 | 0.00 | 0.00 | 0.00 | 51 | 1010.5 |
| 20260510043033 | 58 | 217 | 0.0 | 2.0 | 0.00 | 0.00 | 0.00 | 50 | 1010.5 |
| 20260510041524 | 58 | 141 | 0.0 | 3.0 | 0.00 | 0.00 | 0.00 | 48 | 1010.5 |
| 20260510040032 | 59 | 108 | 0.0 | 4.0 | 0.00 | 0.00 | 0.00 | 47 | 1010.3 |
| 20260510034516 | 60 | 209 | 0.0 | 3.0 | 0.00 | 0.00 | 0.00 | 46 | 1010.5 |
| 20260510033016 | 61 | 260 | 0.0 | 1.0 | 0.00 | 0.00 | 0.00 | 45 | 1010.5 |
| 20260510031521 | 62 | 235 | 0.0 | 1.0 | 0.00 | 0.00 | 0.00 | 44 | 1010.6 |
| 20260510030015 | 63 | 2 | 0.0 | 1.0 | 0.00 | 0.00 | 0.00 | 42 | 1010.6 |
| 20260510024515 | 64 | 16 | 0.0 | 1.0 | 0.00 | 0.00 | 0.00 | 41 | 1010.6 |
| 20260510023014 | 65 | 306 | 0.0 | 4.0 | 0.00 | 0.00 | 0.00 | 39 | 1010.6 |
| 20260510021527 | 66 | 133 | 0.0 | 2.0 | 0.00 | 0.00 | 0.00 | 36 | 1010.6 |
| 20260510020013 | 67 | 56 | 0.0 | 1.0 | 0.00 | 0.00 | 0.00 | 36 | 1010.6 |
| 20260510014512 | 68 | 143 | 0.0 | 2.0 | 0.00 | 0.00 | 0.00 | 35 | 1010.6 |
| 20260510013021 | 68 | 133 | 0.0 | 1.0 | 0.00 | 0.00 | 0.00 | 35 | 1010.5 |
| 20260510011512 | 68 | 133 | 0.0 | 1.0 | 0.00 | 0.00 | 0.00 | 35 | 1010.6 |
| 20260510010011 | 69 | 150 | 0.0 | 1.0 | 0.00 | 0.00 | 0.00 | 34 | 1010.8 |
| 20260510004512 | 70 | 95 | 0.0 | 2.0 | 0.00 | 0.00 | 0.00 | 34 | 1010.8 |
| 20260510003010 | 70 | 109 | 0.0 | 4.0 | 0.00 | 0.00 | 0.00 | 34 | 1010.9 |
| 20260510001511 | 71 | 196 | 0.0 | 2.0 | 0.00 | 0.00 | 0.00 | 34 | 1011.1 |
| 20260510000009 | 71 | 105 | 0.0 | 2.0 | 0.00 | 0.00 | 0.00 | 32 | 1011.0 |
| 20260509234508 | 72 | 139 | 0.0 | 1.0 | 0.00 | 0.00 | 0.00 | 34 | 1011.1 |
| 20260509233004 | 70 | 145 | 0.0 | 3.0 | 0.00 | 0.00 | 0.00 | 34 | 1011.2 |
| 20260509231503 | 70 | 59 | 1.0 | 4.0 | 0.00 | 0.00 | 0.00 | 33 | 1011.3 |
| 20260509230004 | 70 | 102 | 0.0 | 2.0 | 0.00 | 0.00 | 0.00 | 34 | 1011.5 |
| 20260509224600 | 70 | 143 | 0.0 | 3.0 | 0.00 | 0.00 | 0.00 | 35 | 1011.6 |
| 20260509223103 | 70 | 98 | 0.0 | 3.0 | 0.00 | 0.00 | 0.00 | 35 | 1011.6 |
| 20260509221558 | 70 | 135 | 1.0 | 3.0 | 0.00 | 0.00 | 0.00 | 35 | 1011.9 |
| 20260509220101 | 70 | 273 | 0.0 | 2.0 | 0.00 | 0.00 | 0.00 | 35 | 1011.9 |
| 20260509214615 | 70 | 145 | 0.0 | 1.0 | 0.00 | 0.00 | 0.00 | 37 | 1012.2 |
| 20260509213050 | 68 | 49 | 0.0 | 2.0 | 0.00 | 0.00 | 0.00 | 37 | 1012.2 |
| 20260509211547 | 67 | 325 | 0.0 | 2.0 | 0.00 | 0.00 | 0.00 | 39 | 1012.2 |
| 20260509210046 | 66 | 48 | 1.0 | 4.0 | 0.00 | 0.00 | 0.00 | 38 | 1012.3 |
| 20260509204546 | 65 | 39 | 0.0 | 3.0 | 0.00 | 0.00 | 0.00 | 41 | 1012.3 |
| 20260509203056 | 66 | 191 | 0.0 | 2.0 | 0.00 | 0.00 | 0.00 | 41 | 1012.5 |
| 20260509201542 | 66 | 32 | 0.0 | 4.0 | 0.00 | 0.00 | 0.00 | 42 | 1012.7 |
| 20260509200041 | 67 | 51 | 0.0 | 2.0 | 0.00 | 0.00 | 0.00 | 38 | 1012.8 |
| 20260509194536 | 65 | 126 | 1.0 | 4.0 | 0.00 | 0.00 | 0.00 | 41 | 1012.9 |
| 20260509193035 | 65 | 77 | 0.0 | 2.0 | 0.00 | 0.00 | 0.00 | 39 | 1012.9 |
| 20260509191547 | 65 | 49 | 0.0 | 2.0 | 0.00 | 0.00 | 0.00 | 42 | 1013.0 |
| 20260509190032 | 63 | 23 | 0.0 | 3.0 | 0.00 | 0.00 | 0.00 | 43 | 1013.0 |
| 20260509184542 | 62 | 79 | 0.0 | 4.0 | 0.00 | 0.00 | 0.00 | 43 | 1013.1 |
| 20260509183033 | 62 | 31 | 1.0 | 4.0 | 0.00 | 0.00 | 0.00 | 43 | 1013.4 |
| 20260509181524 | 63 | 2 | 0.0 | 4.0 | 0.00 | 0.00 | 0.00 | 43 | 1013.4 |
| 20260509180020 | 60 | 49 | 0.0 | 1.0 | 0.00 | 0.00 | 0.00 | 48 | 1013.5 |
| 20260509174521 | 58 | 65 | 0.0 | 2.0 | 0.00 | 0.00 | 0.00 | 48 | 1013.7 |
| 20260509173015 | 58 | 49 | 0.0 | 1.0 | 0.00 | 0.00 | 0.00 | 48 | 1013.7 |
| 20260509171513 | 58 | 200 | 0.0 | 1.0 | 0.00 | 0.00 | 0.00 | 48 | 1013.5 |
| 20260509170011 | 57 | 128 | 0.0 | 1.0 | 0.00 | 0.00 | 0.00 | 48 | 1013.7 |
| 20260509164509 | 57 | 88 | 0.0 | 1.0 | 0.00 | 0.00 | 0.00 | 50 | 1013.6 |
| 20260509163011 | 56 | 51 | 0.0 | 1.0 | 0.00 | 0.00 | 0.00 | 50 | 1013.5 |
| 20260509161502 | 56 | 133 | 0.0 | 1.0 | 0.00 | 0.00 | 0.00 | 54 | 1013.5 |
| 20260509160059 | 53 | 129 | 0.0 | 1.0 | 0.00 | 0.00 | 0.00 | 56 | 1013.5 |
| 20260509154558 | 51 | 67 | 0.0 | 1.0 | 0.00 | 0.00 | 0.00 | 57 | 1013.7 |